Weather Service Report


086 
ASCA44 KEWX 271720
RWRMX 

LATIN AMERICA AND CARIBBEAN REGIONAL WEATHER ROUNDUP
NATIONAL WEATHER SERVICE AUSTIN/SAN ANTONIO TX
1200 PM CDT TUE SEP 27 2016

NOTE: "FAIR" INDICATED FEW OR NO CLOUDS BELOW 12,000 FEET WITH NO
SIGNIFICANT WEATHER AND/OR OBSTRUCTIONS TO VISIBILITY.

BAJA CALIFORNIA
  
CITY           SKY/WX    TMP DP  RH WIND       PRES   REMARKS
LORETO         PTSUNNY   82  75  78 CALM      29.83S                  
LA PAZ         MOSUNNY   88  59  37 CALM      29.88F                  
MEXICALI       PTSUNNY   84  48  28 E5        29.93S                  
S.J. DEL CABO  MOSUNNY   86  66  51 N6        29.89R                  
TIJUANA        MOSUNNY   84  43  23 E17       29.90S                  

NORTHWESTERN MEXICO
  
CITY           SKY/WX    TMP DP  RH WIND       PRES   REMARKS
CULIACAN       SUNNY     88  73  62 CALM      29.85S HX  96           
DURANGO        CLOUDY    70  59  68 NE8       30.27S                  
GUAYMAS          N/A    N/A N/A N/A MISG        N/A                   
HERMOSILLO     MOSUNNY   86  61  42 E12       29.91S                  
CD. JUAREZ     CLOUDY    59  46  63 E7        30.24R                  
LOS MOCHIS     MOSUNNY   90  63  40 CALM      29.85F HX  90           
OBREGON        MOSUNNY   88  57  35 NE3       29.85R                  

NORTHEASTERN MEXICO
  
CITY           SKY/WX    TMP DP  RH WIND       PRES   REMARKS
CHIHUAHUA      CLOUDY    57  54  88 NE5       30.30S                  
MATAMOROS      CLOUDY    75  72  88 N14       30.02R                  
MONCLOVA         N/A    N/A N/A N/A MISG        N/A                   
MONTERREY      CLOUDY    66  61  82 NW12      30.13S                  
NUEVO LAREDO   CLOUDY    68  63  83 NW9       30.13S                  
PIEDRAS NEGRAS   N/A    N/A N/A N/A MISG        N/A                   
REYNOSA        CLOUDY    73  64  73 NW9       30.04F FOG              
SALTILLO       FOG       63  55  77 N6        30.30R VSB 1            
TORREON        DRIZZLE   66  64  94 NW8       30.19R                  
CD. VICTORIA   PTSUNNY   75  68  78 N21       30.04F                  

WESTERN MEXICO
  
CITY           SKY/WX    TMP DP  RH WIND       PRES   REMARKS
AGUASCALIENTES CLOUDY    68  55  64 NE15      30.28S                  
COLIMA         PTSUNNY   77  72  83 CALM      29.99S                  
DEL BAJIO      PTSUNNY   72  57  60 E15       30.30S                  
GUADALAJARA    PTSUNNY   73  61  64 E5        30.15F                  
MANZANILLO     PTSUNNY   84  77  79 SE7       29.81R HX  94           
MAZATLAN       MOSUNNY   86  75  70 CALM      29.85F HX  95           
P. VALLARTA    CLOUDY    86  79  79 SW5       29.82S HX  99           
URUAPAN        CLOUDY    73  66  78 CALM      30.15S                  
ZACATECAS      CLOUDY    64  54  68 SE9       30.31F                  

CENTRAL MEXICO
  
CITY           SKY/WX    TMP DP  RH WIND       PRES   REMARKS
CUERNAVACA     PTSUNNY   75  66  73 SW3       30.10F                  
MEXICO CITY    LGT RAIN  59  54  82 NE8       30.33S                  
MORELIA        PTSUNNY   68  59  73 NW3       30.23F                  
POZA RICA      LGT RAIN  77  77 100 S7        29.97R                  
PUEBLA         PTSUNNY   68  52  56 N12       30.30F                  
QUERETARO      CLOUDY    68  59  73 E12       30.30F                  
S. LUIS POTOSI CLOUDY    64  54  68 NE9       30.27S                  
TAMPICO        CLOUDY    77  75  94 N12       29.94F                  
TOLUCA         CLOUDY    57  52  82 NW3       30.38S HAZE             

SOUTHERN MEXICO
  
CITY           SKY/WX    TMP DP  RH WIND       PRES   REMARKS
ACAPULCO       CLOUDY    81  75  83 SE5       29.89S                  
B. DE HUATULCO PTSUNNY   82  73  74 CALM      29.97F                  
OAXACA         CLOUDY    68  59  73 W2        30.21F                  
P. ESCONDIDO   PTSUNNY   82  72  69 E7        29.98S                  
VERACRUZ       PTSUNNY   81  75  83 S3        29.92F                  
ZIHUATANEJO    PTSUNNY   82  75  78 SE3       29.89R                  

YUCATAN PENINSULA
  
CITY           SKY/WX    TMP DP  RH WIND       PRES   REMARKS
CAMPECHE       MOSUNNY   86  79  79 E9        29.90F HX  99           
CANCUN         PTSUNNY   86  77  74 SE9       29.95F HX  97           
CHETUMAL       MOSUNNY   86  77  74 E9        29.91F HX  97           
CD. DEL CARMEN PTSUNNY   84  75  74 SE9       29.90F HX  92           
COZUMEL        MOSUNNY   82  77  83 CALM      29.95F HX  91           
MERIDA         PTSUNNY   88  75  66 SE9       29.93F HX  97           
MINATITLAN     PTSUNNY   84  75  74 CALM      29.90F HX  92           
TAPACHULA      PTSUNNY   88  77  70 W3        29.82F HX 100           
TUX. GUTIERREZ MOSUNNY   79  68  69 CALM      29.98F                  
VILLAHERMOSA   CLOUDY    82  73  74 N5        29.93F                  

CENTRAL AMERICA
  
CITY           SKY/WX    TMP DP  RH WIND       PRES   REMARKS
BELIZE CITY    MOSUNNY   88  79  74 E9        29.92F HX 102           
MANAGUA        PTSUNNY   88  70  55 E18       29.86S HX  92           

CARIBBEAN
  
CITY           SKY/WX    TMP DP  RH WIND       PRES   REMARKS
ARUBA          MOSUNNY   91  81  70 E18G30    29.86S HX 110           
CURACAO        MOSUNNY   90  77  66 E15       29.89F HX 102           
KINGSTON       MOSUNNY   90  77  66 SE18      29.89F HX 102           
NASSAU         PTSUNNY   88  75  66 S7        29.97F HX  97           
SAN JUAN       MOSUNNY   88  79  74 E16       29.96  HX 102           
SANTO DOMINGO  MOSUNNY   91  77  62 SE12      29.92F HX 105           
ST. CROIX      MOSUNNY   88  79  74 E16       29.97  HX 102           
ST. KITTS      MOSUNNY   82  79  89 NE13      29.97S HX  93           
ST. MAARTEN    MOSUNNY   86  77  74 SE13      29.97  HX  97           
ST. THOMAS     SUNNY     90  79  70 SE15      29.96F HX 105           

$$

  

Return to Home page


Western Regional Climate Center, wrcc@dri.edu